Find Starlink 32821

NORAD ID: 63078 Int'l Des: 2025-037 Owner: SPXS Country: US Constellation: starlink operational
LEOCIRCULAR

实时位置

正在加载3D地球...

关于 Starlink 32821

正在加载描述...

即将过境

Passes for default location (London). Set your location on the main map for personalized predictions.

高度历史

Loading altitude history...

两行轨道根数

1 63078U 25037B 26122.38967819 .00003019 00000-0 26071-3 0 9997
2 63078 70.0051 219.1377 0002250 273.0767 87.0135 14.98332217 66624
Epoch: May 2, 2026 • Age: 10 hours

当前状态

高度 585.1 km
速度 7.57 km/s
星下点 70.08°N, 159.88°E
发射日期 Feb 23, 2025
运行时间 1.1 years
类型 internet

技术详情

分类 Payload
质量 730.00 kg
干质量 700.00 kg
总质量 730.00 kg
长度 0.30 m
直径 4.10 m
跨度 29.00 m
形状 Box + pan
制造商 SPXS
平台类型 Starlink V2M
阶段状态 In Orbit
所有者/国家 SPXS/US

Most Searched